(274730) = 2008 UE189

Discovered at Mount Lemmon on 2008-10-25 by Mt. Lemmon Survey.

Orbit

Orbit type: Main Belt

Note: WebGL enabled browser required.

epoch2023-09-13.0
epoch JD2460200.5
perihelion date2023-03-28.82112
perihelion JD2460032.32112
argument of perihelion (°)171.96776
ascending node (°)181.56195
inclination (°)2.08667
eccentricity0.0885261
perihelion distance (AU)2.6261434
Tisserand w.r.t. Jupiter3.3
ΔV w.r.t. Earth (km/sec)10.1
semimajor axis (AU)2.8812053
mean anomaly (°)33.89331
mean daily motion (°/day)0.20153130
aphelion distance (AU)3.136
period (years)4.89
P-vector [x]0.99362788
P-vector [y]-0.10532816
P-vector [z]-0.04011999
Q-vector [x]0.11270603
Q-vector [y]0.92537736
Q-vector [z]0.36190342
absolute magnitude16.82
phase slope0.15
uncertainty0
referenceMPEC 2023-X167
observations used257
oppositions14
arc length (days)9204
first opposition used1998
last opposition used2023
residual rms (arc-secs)0.77
perturbers coarse indicatorM-v
perturbers precise indicator003Ek
first observation date used1998-09-27.0
last observation date used2023-12-09.0
computer nameMPCLINUX
JD of orbit computation2456612.724804
perihelion JD uncertainty (days)3.0328E-04
argument of perihelion uncertainty (°)1.6807E-04
ascending node uncertainty (°)1.5879E-04
inclination uncertainty (°)2.0137E-05
eccentricity uncertainty 2.8199E-07
perihelion distance uncertainty (AU)7.7867E-07
Minimum Orbit Intersection Distances (in AU)
for orbit epoch: 2460200.5, reference: E2023-VN0
Mercury2.24628
Venus1.90123
Earth1.62017
Mars1.23208
Jupiter2.24027
Saturn6.0987
Uranus15.3131
Neptune27.1305

Observations

266 total observations over interval: 1998 09 27.17516 – 2023 12 09.250340
These data are available for download (format description).

Date (UT) J2000 RA J2000 Dec Magn Location Ref
1998 09 27.17516 22 35 56.12 -07 57 56.8 20.7 V 691 – Steward Observatory, Kitt Peak-Spacewatch MPS 270417
1998 09 27.19804 22 35 55.30 -07 58 02.1 20.9 V 691 – Steward Observatory, Kitt Peak-Spacewatch MPS 270417
1998 09 27.21895 22 35 54.63 -07 58 07.6 20.8 V 691 – Steward Observatory, Kitt Peak-Spacewatch MPS 270417
1998 10 12.09060 22 30 26.75 -08 45 39.1 23.4 V 691 – Steward Observatory, Kitt Peak-Spacewatch MPS 270417
1998 10 12.11169 22 30 26.44 -08 45 40.3 21.1 V 691 – Steward Observatory, Kitt Peak-Spacewatch MPS 270417
1998 10 12.13947 22 30 26.11 -08 45 44.7 20.9 V 691 – Steward Observatory, Kitt Peak-Spacewatch MPS 270417
2003 09 27.21694 23 39 17.97 -01 59 26.4 20.8 V 691 – Steward Observatory, Kitt Peak-Spacewatch MPS 270417
2003 09 27.24612 23 39 16.63 -01 59 36.5 20.9 V 691 – Steward Observatory, Kitt Peak-Spacewatch MPS 270417
2003 09 27.27915 23 39 15.10 -01 59 47.5 20.8 V 691 – Steward Observatory, Kitt Peak-Spacewatch MPS 270417
2006 02 25.33834 12 06 40.18 -01 09 17.1 21.8 V 691 – Steward Observatory, Kitt Peak-Spacewatch MPS 270417
2006 02 25.35565 12 06 39.53 -01 09 12.7 21.5 V 691 – Steward Observatory, Kitt Peak-Spacewatch MPS 270417
2006 02 25.37297 12 06 38.85 -01 09 07.8 22.1 V 691 – Steward Observatory, Kitt Peak-Spacewatch MPS 270417
2006 03 04.32744 12 02 09.31 -00 36 21.9   691 – Steward Observatory, Kitt Peak-Spacewatch MPS 270417
2006 03 04.34484 12 02 08.54 -00 36 16.4   691 – Steward Observatory, Kitt Peak-Spacewatch MPS 270417
2006 03 04.36222 12 02 07.76 -00 36 11.0   691 – Steward Observatory, Kitt Peak-Spacewatch MPS 270417
2008 08 24.41040 00 56 57.14 +06 11 04.6   691 – Steward Observatory, Kitt Peak-Spacewatch MPS 270417
2008 08 24.42799 00 56 56.85 +06 11 02.5   691 – Steward Observatory, Kitt Peak-Spacewatch MPS 270417
2008 08 24.44554 00 56 56.66 +06 11 00.4   691 – Steward Observatory, Kitt Peak-Spacewatch MPS 270417
2008 10 01.29617 00 35 44.88 +03 23 21.3 19.9 V G96 – Mt. Lemmon Survey MPS 270417
2008 10 01.30163 00 35 44.59 +03 23 19.5 20.0 V G96 – Mt. Lemmon Survey MPS 270417
2008 10 01.30712 00 35 44.34 +03 23 17.5 19.9 V G96 – Mt. Lemmon Survey MPS 270417
2008 10 01.31257 00 35 44.08 +03 23 15.6 20.1 V G96 – Mt. Lemmon Survey MPS 270417
2008 10 17.22240 00 24 01.43 +01 54 40.4 20.4 V 691 – Steward Observatory, Kitt Peak-Spacewatch MPS 270417
2008 10 17.25930 00 23 59.90 +01 54 29.6 20.6 V 691 – Steward Observatory, Kitt Peak-Spacewatch MPS 270417
2008 10 17.29620 00 23 58.37 +01 54 18.5 20.2 V 691 – Steward Observatory, Kitt Peak-Spacewatch MPS 270417
2008 10 25.15907 00 19 18.33 +01 18 28.4 20.6 V G96 – Mt. Lemmon Survey MPS 263553
2008 10 25.16349 00 19 18.19 +01 18 27.7 20.6 V G96 – Mt. Lemmon Survey MPS 263553
2008 10 25.16794 00 19 18.04 +01 18 26.3 20.5 V G96 – Mt. Lemmon Survey MPS 263553
2008 10 25.17230 00 19 17.90 +01 18 25.3 20.6 V G96 – Mt. Lemmon Survey MPS 263553
2008 10 26.11526 00 18 48.81 +01 14 40.1   291 – LPL/Spacewatch II MPS 270417
2008 10 26.11908 00 18 48.72 +01 14 38.8   291 – LPL/Spacewatch II MPS 270417
2008 10 26.12295 00 18 48.62 +01 14 38.3   291 – LPL/Spacewatch II MPS 270417
2008 10 26.13509 00 18 48.24 +01 14 34.6 20.7 V G96 – Mt. Lemmon Survey MPS 263553
2008 10 26.14021 00 18 48.09 +01 14 33.4 20.7 V G96 – Mt. Lemmon Survey MPS 263553
2008 10 26.14532 00 18 47.91 +01 14 32.6 20.6 V G96 – Mt. Lemmon Survey MPS 263553
2008 10 26.15045 00 18 47.77 +01 14 31.0 20.3 V G96 – Mt. Lemmon Survey MPS 263553
2008 11 24.13845 00 13 49.44 +00 28 14.8 21.2 V G96 – Mt. Lemmon Survey MPS 270417
2008 11 24.14686 00 13 49.54 +00 28 15.1 21.1 V G96 – Mt. Lemmon Survey MPS 270417
2008 11 24.15519 00 13 49.58 +00 28 15.6 21.3 V G96 – Mt. Lemmon Survey MPS 270417
2008 11 24.16348 00 13 49.69 +00 28 16.2 21.6 V G96 – Mt. Lemmon Survey MPS 270417
2010 01 08.31748 07 21 11.30 +19 08 07.8 20.7 V G96 – Mt. Lemmon Survey MPS 310301
2010 01 08.32332 07 21 10.94 +19 08 08.5 21.0 V G96 – Mt. Lemmon Survey MPS 310301
2010 01 08.32922 07 21 10.62 +19 08 09.0 20.7 V G96 – Mt. Lemmon Survey MPS 310301
2010 01 08.33516 07 21 10.26 +19 08 09.7 20.9 V G96 – Mt. Lemmon Survey MPS 310301
2010 01 08.34108 07 21 09.93 +19 08 10.5 20.9 V G96 – Mt. Lemmon Survey MPS 310301
2011 03 14.41677 12 34 02.17 -03 31 52.8 21.2 V G96 – Mt. Lemmon Survey MPS 374828
2011 03 14.42480 12 34 01.84 -03 31 51.3 21.3 V G96 – Mt. Lemmon Survey MPS 374828
2011 03 14.43293 12 34 01.52 -03 31 48.2 21.4 V G96 – Mt. Lemmon Survey MPS 374828
2011 03 14.44101 12 34 01.16 -03 31 46.0 20.9 V G96 – Mt. Lemmon Survey MPS 374828
2011 03 31.36919 12 21 17.760 -01 59 35.79 21.5 w F51 – Pan-STARRS 1, Haleakala MPS 377238
2011 03 31.38473 12 21 17.024 -01 59 30.59 21.5 w F51 – Pan-STARRS 1, Haleakala MPS 377238
2011 03 31.40129 12 21 16.232 -01 59 25.09 21.7 w F51 – Pan-STARRS 1, Haleakala MPS 377238
2011 04 27.25085 12 03 56.08 +00 07 08.3 21.5 V G96 – Mt. Lemmon Survey MPS 381150
2011 04 27.25638 12 03 55.94 +00 07 09.5 21.4 V G96 – Mt. Lemmon Survey MPS 381150
2011 04 27.26196 12 03 55.62 +00 07 10.7 21.9 V G96 – Mt. Lemmon Survey MPS 381150
2011 04 27.26758 12 03 55.51 +00 07 12.0 21.5 V G96 – Mt. Lemmon Survey MPS 381150
2013 09 13.40367 01 43 55.05 +10 01 20.3 20.3 V G96 – Mt. Lemmon Survey MPS 477554
2013 09 13.41277 01 43 54.78 +10 01 18.3 20.4 V G96 – Mt. Lemmon Survey MPS 477554
2013 09 13.42182 01 43 54.58 +10 01 16.9 20.1 V G96 – Mt. Lemmon Survey MPS 477554
2013 09 13.43091 01 43 54.38 +10 01 15.1 20.1 V G96 – Mt. Lemmon Survey MPS 477554
2013 09 25.45415 01 37 53.92 +09 15 05.0 20.5 V G96 – Mt. Lemmon Survey MPS 478618
2013 09 25.45939 01 37 53.74 +09 15 03.2 20.2 V G96 – Mt. Lemmon Survey MPS 478618
2013 09 25.46468 01 37 53.53 +09 15 02.0 20.2 V G96 – Mt. Lemmon Survey MPS 478618
2013 09 25.47001 01 37 53.32 +09 15 00.5 20.5 V G96 – Mt. Lemmon Survey MPS 478618
2013 10 13.22381 01 24 53.67 +07 42 39.2 20.0 V G96 – Mt. Lemmon Survey MPS 482109
2013 10 13.23139 01 24 53.32 +07 42 36.8 19.8 V G96 – Mt. Lemmon Survey MPS 482109
2013 10 13.23888 01 24 52.93 +07 42 34.1 19.7 V G96 – Mt. Lemmon Survey MPS 482109
2013 10 13.24644 01 24 52.57 +07 42 31.6 19.4 V G96 – Mt. Lemmon Survey MPS 482109
2013 10 22.34241 01 17 41.91 +06 52 37.8 20.2 V G96 – Mt. Lemmon Survey MPS 483456
2013 10 22.34765 01 17 41.67 +06 52 36.2 19.9 V G96 – Mt. Lemmon Survey MPS 483456
2013 10 22.35287 01 17 41.43 +06 52 34.0 19.6 V G96 – Mt. Lemmon Survey MPS 483456
2013 10 22.35808 01 17 41.15 +06 52 32.6 20.1 V G96 – Mt. Lemmon Survey MPS 483456
2013 10 27.33401 01 13 59.050 +06 26 52.68 20.5 w F51 – Pan-STARRS 1, Haleakala MPS 485059
2013 10 27.34949 01 13 58.355 +06 26 48.09 20.4 w F51 – Pan-STARRS 1, Haleakala MPS 485059
2013 10 27.36507 01 13 57.646 +06 26 43.40 20.4 w F51 – Pan-STARRS 1, Haleakala MPS 485059
2013 10 27.38069 01 13 56.944 +06 26 38.80 20.5 w F51 – Pan-STARRS 1, Haleakala MPS 485059
2014 12 21.40203 08 22 06.31 +16 38 36.6 21.1 V G96 – Mt. Lemmon Survey MPS 559887
2014 12 21.40816 08 22 06.09 +16 38 37.5 21.1 V G96 – Mt. Lemmon Survey MPS 559887
2014 12 21.41431 08 22 05.88 +16 38 37.8 20.8 V G96 – Mt. Lemmon Survey MPS 559887
2014 12 21.42045 08 22 05.65 +16 38 38.6 20.7 V G96 – Mt. Lemmon Survey MPS 559887
2014 12 21.59065 08 21 59.918 +16 38 54.43 21.3 w F51 – Pan-STARRS 1, Haleakala MPS 559887
2014 12 21.60420 08 21 59.434 +16 38 55.78 21.4 w F51 – Pan-STARRS 1, Haleakala MPS 559887
2014 12 21.61793 08 21 58.960 +16 38 56.82 21.4 w F51 – Pan-STARRS 1, Haleakala MPS 559887
2014 12 21.63171 08 21 58.487 +16 38 58.28 21.5 w F51 – Pan-STARRS 1, Haleakala MPS 559887
2015 01 16.34974 08 02 05.509 +17 39 19.43 20.7 w F51 – Pan-STARRS 1, Haleakala MPS 562270
2015 01 16.36195 08 02 04.840 +17 39 21.56 20.9 w F51 – Pan-STARRS 1, Haleakala MPS 562270
2015 01 16.37425 08 02 04.151 +17 39 23.87 20.7 w F51 – Pan-STARRS 1, Haleakala MPS 562270
2015 01 16.52663 08 01 55.626 +17 39 50.15 20.8 w F51 – Pan-STARRS 1, Haleakala MPS 562270
2015 01 16.53888 08 01 54.946 +17 39 52.24 20.9 w F51 – Pan-STARRS 1, Haleakala MPS 562270
2015 01 16.55114 08 01 54.261 +17 39 54.34 20.8 w F51 – Pan-STARRS 1, Haleakala MPS 562270
2015 01 16.56344 08 01 53.578 +17 39 56.39 20.9 w F51 – Pan-STARRS 1, Haleakala MPS 562270
